Regional Weather Roundup
Issued by NWS

Home | Current Version | Previous Version | Text Only | Print | Product List | Glossary On
Versions: 1 2 3 4 5 6 7 8 9 10 11 12 13 14 15 16 17 18 19 20 21 22 23 24 25 26 27 28 29 30 31 32 33 34 35 36 37 38 39 40 41 42 43 44 45 46 47 48 49 50
000
ASUS45 KPSR 030710
RWRAZ

ARIZONA HOURLY REGIONAL WEATHER ROUNDUP
NATIONAL WEATHER SERVICE PHOENIX AZ
1200 AM MST FRI JUL 03 2015

NOTE: FAIR INDICATES FEW OR NO CLOUDS BELOW 12,000 FEET WITH NO
SIGNIFICANT WEATHER AND/OR OBSTRUCTIONS TO VISIBILITY.

AZZ001>003-036-030800-
NORTHWEST ARIZONA

CITY           SKY/WX    TMP DP  RH WIND       PRES   REMARKS
BULLHEAD CITY  CLEAR     97  54  23 CALM      29.76S
KINGMAN        PTCLDY    83  52  34 SW10      29.99R
$$

AZZ004>008-015-016-018-030800-
NORTH CENTRAL ARIZONA

CITY           SKY/WX    TMP DP  RH WIND       PRES   REMARKS
GRAND CANYON     N/A     64  54  69 MISG      30.22F
WILLIAMS       MOCLDY    61  54  77 S6        30.30F
PRESCOTT       MOCLDY    75  53  46 SW8       30.10F
FLAGSTAFF      MOCLDY    65  52  62 S3        30.25F
PAYSON         PTCLDY    79  50  36 CALM      30.12S
PAGE           CLOUDY    84  50  30 CALM      29.99S
$$

AZZ009>014-017-030800-
NORTHEAST ARIZONA

CITY           SKY/WX    TMP DP  RH WIND       PRES   REMARKS
WINSLOW        CLOUDY    76  55  48 W6        30.06F
SAINT JOHNS    CLOUDY    72  55  55 NE6       30.14S
WINDOW ROCK    CLOUDY    68  53  58 SE6       30.25R
SHOW LOW       PTCLDY    68  54  60 S8        30.20S
$$

AZZ023-030800-
GREATER PHOENIX AREA

CITY           SKY/WX    TMP DP  RH WIND       PRES   REMARKS
PHOENIX        MOCLDY    97  55  24 W7        29.77S THUNDER
BUCKEYE        MOCLDY    93  55  27 SW6       29.78S
LUKE AFB       MOCLDY    95  57  28 SW7       29.77R
DEER VALLEY    MOCLDY    94  56  27 SW12      29.79S
SCOTTSDALE     MOCLDY    95  55  26 SW6       29.82S THUNDER
MESA-GATEWAY   PTCLDY    91  54  27 CALM      29.84R
$$

AZZ027-028-030800-
SOUTHWEST MARICOPA COUNTY AND PINAL COUNTY

CITY           SKY/WX    TMP DP  RH WIND       PRES   REMARKS
CASA GRANDE    CLOUDY    91  54  27 W7        29.82R
GILA BEND      FAIR      95  53  23 SW9       29.77S
$$

AZZ503-504-507>509-030800-
SOUTHEAST ARIZONA

CITY           SKY/WX    TMP DP  RH WIND       PRES   REMARKS
TUCSON         CLOUDY    89  54  30 W6        29.96R
DAVIS-MONTHAN  MOCLDY    87  55  32 W5        29.94R
NOGALES        CLOUDY    77  63  61 E3        30.06R
SIERRA VISTA   CLOUDY    80  55  42 W13       30.11S
DOUGLAS        CLOUDY    72  60  66 S14       30.09R
SAFFORD        MOCLDY    87  56  34 NW17G25   29.90R
$$

AZZ020-021-025-026-031-030800-
SOUTHWEST ARIZONA

CITY           SKY/WX    TMP DP  RH WIND       PRES   REMARKS
YUMA           CLEAR     90  67  46 S8        29.77S
$$

CAZ031-033-041-043-047-048-061-030800-
SOUTHERN CALIFORNIA

CITY           SKY/WX    TMP DP  RH WIND       PRES   REMARKS
DOWNTOWN L.A.  CLEAR     66  61  84 CALM      29.94F
L.A. AIRPORT   MOCLDY    63  61  93 W7        29.95S
SAN DIEGO      MOCLDY    69  63  81 W5        29.97S
BURBANK        CLEAR     70  60  70 SE5       29.95S
ONTARIO        CLEAR     74  55  51 SW5       29.96S
RIVERSIDE      CLEAR     74  59  59 W5        29.96S
PALM SPRINGS   CLEAR     93  56  28 SE3       29.79S
EL CENTRO NAS  CLEAR     89  54  30 W12       29.76F
IMPERIAL       CLEAR     87  55  33 W12G18    29.74F
BLYTHE         CLEAR     97  59  28 W12       29.73F
NEEDLES        CLEAR     98  55  23 SW10      29.76F
$$

NVZ020-UTZ003-030800-
SOUTHERN NEVADA-UTAH

CITY           SKY/WX    TMP DP  RH WIND       PRES   REMARKS
LAS VEGAS      PTCLDY    96  50  20 SW12      29.81R
SALT LAKE CITY PTCLDY    79  50  36 S6        29.98R
$$

NMZ009-TXZ055-030800-
NEW MEXICO-WEST TEXAS

CITY           SKY/WX    TMP DP  RH WIND       PRES   REMARKS
ALBUQUERQUE    CLOUDY    70  58  65 N8        30.19F
EL PASO        CLOUDY    85  44  23 E9        30.01R
$$


........................KEY........................
SKY/WX - SKY CONDITION/WEATHER
TMP    - TEMPERATURE IN FAHRENHEIT
DP     - DEW POINT IN FAHRENHEIT
RH     - RELATIVE HUMIDITY IN PERCENT
WIND   - DIRECTION AND SPEED IN MILES PER HOUR (MPH)
VRB    - VARIABLE WIND DIRECTION
PRES   - MEAN SEA LEVEL PRESSURE IN INCHES OF MERCURY
         F - FALLING PRESSURE   R - RISING PRESSURE
         S - STEADY PRESSURE
VSB    - VISIBILITY IN MILES
HX     - HEAT INDEX IN FAHRENHEIT
WCI    - WIND CHILL INDEX IN FAHRENHEIT
TC     - TEMPERATURE IN CELSIUS WHICH IS ALSO KNOWN AS
         TEMPERATURE IN CENTIGRADE
AFB    - AIR FORCE BASE
         LUKE AFB IS LUKE AIR FORCE BASE
         DAVIS-MONTHAN IS DAVIS-MONTHAN AIR FORCE BASE
NAS    - NAVAL AIR STATION
         EL CENTRO NAS IS EL CENTRO NAVAL AIR STATION
N/A    - NOT AVAILABLE



USA.gov is the U.S. government's official web portal to all federal, state and local government web resources and services.